Lexington Weather

Lexington, Massachusetts, USA

48°F
10/22/2019 3:11am 
  • Lexington Conditions: Haze, Overcast
  • Temperature: 47.5°F / 8.6°CWarmer 1.1°F than last hour.
  • Dew Point: 46.0°FIncreased 1.2°Fsince last hour.
  • Relative Humidity: 95%Increased 1.0% since last hour.
  • Wind: Calm, 10-min avg: Calm, gust: None
  • Barometer: 30.12 in Steady
  • Visibility: 1½ miles
  • Rain Today: 0.00 in
  •   

Regional Weather Roundup
for Boston, MA

        
000
ASUS41 KBOX 210210
RWRBOX

REGIONAL WEATHER ROUNDUP
NATIONAL WEATHER SERVICE BOSTON/NORTON MA
1000 PM EDT SUN OCT 20 2019

NOTE:  "FAIR" INDICATES FEW OR NO CLOUDS BELOW 12,000 FEET WITH NO 
SIGNIFICANT WEATHER AND/OR OBSTRUCTIONS TO VISIBILITY.

MAZALL-210300-
EASTERN MASSACHUSETTS
  
CITY           SKY/WX    TMP DP  RH WIND       PRES   REMARKS
BOSTON         CLOUDY    57  49  74 SE8       30.05F                  
BEVERLY        CLOUDY    53  49  86 E3        30.05F                  
LAWRENCE       CLOUDY    51  47  86 N3        30.09R                  
BEDFORD        LGT RAIN  54  46  74 N5        30.05S                  
BLUE HILL      NOT AVBL                                               
NORWOOD        CLOUDY    53  48  83 CALM      30.04F                  
MARSHFIELD     FAIR      55  48  76 CALM      30.05F                  
PLYMOUTH       CLOUDY    52  48  86 NE5       30.05S                  
TAUNTON        CLOUDY    53  48  83 CALM      30.03F                  
NEW BEDFORD    CLOUDY    53  49  86 NE3       30.03S                  
$$

MAZALL-210300-
CAPE COD AND THE ISLANDS
  
CITY           SKY/WX    TMP DP  RH WIND       PRES   REMARKS
FALMOUTH       DRIZZLE   52  48  87 NE6       30.03F                  
HYANNIS        LGT RAIN  54  50  86 CALM      30.03F                  
CHATHAM        NOT AVBL                                               
PROVINCETOWN   FAIR      53  47  79 CALM        N/A                   
NANTUCKET      LGT RAIN  55  52  89 E9        30.02F                  
MARTHAS VNYRD  LGT RAIN  54  51  90 E6        30.03S                  
$$
 
MAZALL-210300-
CENTRAL AND WESTERN MASSACHUSETTS
  
CITY           SKY/WX    TMP DP  RH WIND       PRES   REMARKS
WORCESTER      LGT RAIN  49  44  83 N5        30.05S                  
FITCHBURG      CLOUDY    50  47  89 CALM      30.07S                  
ORANGE         CLOUDY    51  47  86 CALM      30.07R                  
SPRINGFIELD    CLOUDY    51  50  98 CALM      30.04S                  
WESTFIELD      CLOUDY    50  48  93 CALM      30.05S                  
NORTH ADAMS    FAIR      48  45  89 CALM      30.04S                  
PITTSFIELD     FAIR      48  46  93 CALM      30.03R                  
$$
 
RIZALL-210300-
RHODE ISLAND
  
CITY           SKY/WX    TMP DP  RH WIND       PRES   REMARKS
PROVIDENCE     LGT RAIN  54  51  90 N5        30.04F                  
NEWPORT        LGT RAIN  55  49  80 NE5       30.02F                  
BLOCK ISLAND   LGT RAIN  56  52  86 E9        30.02S                  
SMITHFIELD     LGT RAIN N/A N/A N/A N5        30.04F                  
WESTERLY       LGT RAIN  54  49  83 NE5       30.03S                  
$$
 
CTZALL-210300-
CONNECTICUT
  
CITY           SKY/WX    TMP DP  RH WIND       PRES   REMARKS
BRADLEY INTL   CLOUDY    53  49  86 N3        30.04S                  
HARTFORD       CLOUDY    52  48  86 NE5       30.04S                  
BRIDGEPORT     LGT RAIN  53  50  89 NE9       30.02R                  
DANBURY        LGT RAIN  51  49  92 NE7       30.03R                  
GROTON         LGT RAIN  52  50  93 NE7       30.01F                  
NEW HAVEN      CLOUDY    55  51  86 NE5       30.02S                  
CHESTER        MOCLDY    52  50  93 N5        30.03R                  
MERIDEN        CLOUDY    52  49  89 N3        30.03S                  
WILLIMANTIC    LGT RAIN  50  49  96 N3        30.05S                  
OXFORD         LGT RAIN  50  49  96 NE12      30.03S                  
$$

MEZ002-015-021-024-NHZ003-005-008-011-012-014-VTZ005-008-210300-
NORTHERN NEW ENGLAND
  
CITY           SKY/WX    TMP DP  RH WIND       PRES   REMARKS
PORTLAND ME    FAIR      49  45  86 N5        30.09R                  
BANGOR ME      CLOUDY    47  42  83 SW6       30.09R                  
CONCORD NH     LGT RAIN  49  47  93 NW3       30.07S                  
MANCHESTER NH  CLOUDY    52  49  89 CALM      30.06S                  
NASHUA NH      CLOUDY    50  50 100 CALM      30.07F                  
PORTSMOUTH NH  CLOUDY    51  48  90 N3        30.06S                  
JAFFREY NH     CLOUDY    49  46  90 CALM      30.07R                  
KEENE NH       CLOUDY    49  48  97 CALM      30.07R                  
BURLINGTON VT  FAIR      49  42  77 CALM      30.03R                  
MT. WASHINGTON LGT RAIN  39  37  93 SW22        N/A  WCI  29          
$$

NYZ052-076-210300-
EASTERN NEW YORK
  
CITY           SKY/WX    TMP DP  RH WIND       PRES   REMARKS
ALBANY         FOG       47  44  90 CALM      30.05S VSB 3/4          
NEW YORK CITY  CLOUDY    55  50  83 NE14      29.99S                  
$$
 
ANZALL-210300-
MARINE OBSERVATIONS
  
STATION/POSITION TIME  TEMP    WIND        PRES    VSBY  WAVE
                       AIR SEA DIR/SP/G                  HT/PER
                 (UTC) (F)     (DEG/KT/KT) (MB)    (MI)  (FT/S)
BOSTON BUOY      0150   56 57  130/  4/  8 1017.1F         1/13
BUZZARDS BAY     0100   56      90/ 10/ 11 1017.2F
NANTUCKET SOUND  0140      56                N/A           1/ 2
MASS BAY-STELLWA 0104   56 56  150/  8/  8 1017.6R  1 7/8  1
ISLE OF SHOALS   0100   54     120/  2/  2 1018.0R
S OF BLOCK IS    0130      60                N/A           3/ 3
$$

......................KEY.........................
  SKY/WX - SKY CONDITION/PRESENT WEATHER
  TMP    - TEMPERATURE IN FAHRENHEIT
  DWPT   - DEWPOINT IN FAHRENHEIT
  RH     - RELATIVE HUMIDITY IN PERCENT
  WIND   - DIRECTION AND SPEED IN MPH
  PRES   - MEAN SEA LEVEL PRESSURE IN INCHES OF HG
  WCI    - WIND CHILL INDEX
  VSB    - VISIBILITY IN MILES
  HX     - HEAT INDEX
  TC     - TEMPERATURE IN CELSIUS
  VRB    - VARIABLE WIND DIRECTION
  N/A    - NOT AVAILABLE
  
      

Other recent Regional Weather Roundups

Tue Oct 22, 2:10am

Tue Oct 22, 2:00am

Tue Oct 22, 1:10am

Tue Oct 22, 1:00am

Tue Oct 22, 12:10am

Tue Oct 22, 12:00am

Mon Oct 21, 11:10pm

Mon Oct 21, 11:00pm

Mon Oct 21, 10:10pm

Mon Oct 21, 10:01pm

Mon Oct 21, 9:10pm

Mon Oct 21, 9:00pm

Mon Oct 21, 8:10pm

Mon Oct 21, 8:00pm

Mon Oct 21, 7:10pm

Mon Oct 21, 7:01pm

Mon Oct 21, 6:10pm

Mon Oct 21, 6:01pm

Mon Oct 21, 5:10pm

Mon Oct 21, 5:01pm

Mon Oct 21, 4:10pm

Mon Oct 21, 4:00pm

Mon Oct 21, 3:10pm

Mon Oct 21, 3:01pm

Mon Oct 21, 2:10pm

Mon Oct 21, 2:00pm

Mon Oct 21, 1:10pm

Mon Oct 21, 1:01pm

Mon Oct 21, 12:10pm

Mon Oct 21, 12:00pm

Mon Oct 21, 11:10am

Mon Oct 21, 11:00am

Mon Oct 21, 10:10am

Mon Oct 21, 10:00am

Mon Oct 21, 9:10am

Mon Oct 21, 9:00am

Mon Oct 21, 7:10am

Mon Oct 21, 7:00am

Mon Oct 21, 6:10am

Mon Oct 21, 6:00am

Mon Oct 21, 5:10am

Mon Oct 21, 5:00am

Mon Oct 21, 4:10am

Mon Oct 21, 4:00am

Mon Oct 21, 3:10am

Mon Oct 21, 3:00am

Mon Oct 21, 2:10am

Mon Oct 21, 2:01am

Mon Oct 21, 1:10am

Mon Oct 21, 1:00am

Mon Oct 21, 12:10am

Mon Oct 21, 12:00am

Sun Oct 20, 11:10pm

Sun Oct 20, 11:00pm

Sun Oct 20, 10:00pm

Sun Oct 20, 9:10pm

Sun Oct 20, 9:01pm

Sun Oct 20, 8:10pm

Sun Oct 20, 8:00pm

Sun Oct 20, 7:10pm

Sun Oct 20, 7:01pm

Sun Oct 20, 6:10pm

Sun Oct 20, 6:00pm

Sun Oct 20, 5:10pm

Sun Oct 20, 5:00pm

Sun Oct 20, 4:10pm

Sun Oct 20, 4:00pm

Sun Oct 20, 3:10pm

Sun Oct 20, 3:00pm

Sun Oct 20, 2:10pm

Sun Oct 20, 2:01pm

Sun Oct 20, 1:10pm

Sun Oct 20, 1:01pm

Sun Oct 20, 12:10pm

Sun Oct 20, 12:00pm

Sun Oct 20, 11:10am

Sun Oct 20, 11:00am

Sun Oct 20, 10:10am

Sun Oct 20, 10:00am

Sun Oct 20, 9:10am

Sun Oct 20, 9:00am

Sun Oct 20, 8:10am

Sun Oct 20, 8:00am

Sun Oct 20, 7:10am

Sun Oct 20, 7:00am

Sun Oct 20, 6:10am

Sun Oct 20, 6:00am

Sun Oct 20, 5:10am

Sun Oct 20, 5:00am

Sun Oct 20, 4:10am

Sun Oct 20, 4:00am

Sun Oct 20, 3:10am

Sun Oct 20, 3:00am

Sun Oct 20, 2:10am

Sun Oct 20, 2:00am

Sun Oct 20, 1:10am

Sun Oct 20, 1:00am

Sun Oct 20, 12:10am

Sun Oct 20, 12:00am

Sat Oct 19, 11:10pm

Sat Oct 19, 11:00pm

Sat Oct 19, 10:10pm

Sat Oct 19, 10:00pm

Sat Oct 19, 9:10pm

Sat Oct 19, 9:00pm

Sat Oct 19, 8:10pm

Sat Oct 19, 8:00pm

Sat Oct 19, 7:10pm

Sat Oct 19, 7:00pm

Sat Oct 19, 6:10pm

Sat Oct 19, 6:00pm

Sat Oct 19, 5:10pm

Sat Oct 19, 5:00pm

Sat Oct 19, 4:10pm

Sat Oct 19, 4:00pm

Sat Oct 19, 3:10pm

Sat Oct 19, 3:01pm

Sat Oct 19, 2:10pm

Sat Oct 19, 2:00pm

Sat Oct 19, 1:10pm

Sat Oct 19, 1:01pm

Sat Oct 19, 12:10pm

Sat Oct 19, 12:00pm

Sat Oct 19, 11:10am

Sat Oct 19, 11:01am

Sat Oct 19, 10:10am

Sat Oct 19, 10:00am

Sat Oct 19, 9:10am

Sat Oct 19, 9:00am

Sat Oct 19, 8:10am

Sat Oct 19, 8:00am

Sat Oct 19, 7:10am

Sat Oct 19, 7:00am

Sat Oct 19, 6:10am

Sat Oct 19, 6:00am

Sat Oct 19, 5:10am

Sat Oct 19, 5:00am

Sat Oct 19, 4:10am

Sat Oct 19, 4:00am

Sat Oct 19, 3:10am

Sat Oct 19, 3:00am

Meta data:

ID: 3e0223d6-1350-47e4-bd10-208d33bb218f
Link: https://api.weather.gov/products/3e0223d6-1350-47e4-bd10-208d33bb218f